Wind_Speed
13 12 11 11 11 10 10 10 9 9 8 8 7 8 8 8 8 9 9 10 11 11 12 12 12 11 11 11 11 11 12 12 11 11 10 10 10 9 9 9 9 8 8
13 12 12 11 11 11 9 10 9 9 9 8 7 7 8 9 8 8 9 10 10 11 11 11 11 11 11 11 11 11 12 12 12 11 10 11 10 9 9 9 8 8 8
12 12 12 11 11 11 10 9 9 9 9 8 8 7 8 8 8 8 9 9 10 10 10 11 11 11 11 11 12 12 12 12 11 11 11 11 10 9 9 8 8 8 7
12 11 11 11 10 10 10 9 9 9 8 8 8 7 7 7 8 8 8 8 9 9 10 10 10 11 11 12 12 12 12 12 11 11 11 10 10 9 9 8 8 7 7
12 11 11 10 10 10 10 9 9 9 8 8 8 7 7 8 8 8 9 9 9 9 9 10 10 11 11 11 11 12 12 11 11 11 10 10 10 9 9 8 8 8 7
12 11 11 10 10 10 10 9 9 9 8 8 8 8 8 8 8 8 9 9 9 9 9 9 10 10 10 11 11 11 11 10 10 10 10 10 9 9 8 8 8 7 7
11 11 10 10 10 9 9 9 9 9 8 7 8 8 8 8 9 9 8 8 8 8 8 8 9 10 10 10 10 10 10 9 10 10 9 9 8 8 8 7 7 7 6
11 10 10 9 9 9 9 9 8 9 8 7 7 8 8 8 8 8 8 7 7 8 8 8 9 9 9 9 9 10 9 9 9 8 8 8 7 8 7 7 6 6 6
10 10 9 9 9 9 9 9 9 8 8 7 8 8 7 7 8 8 7 7 7 7 7 8 8 9 9 8 8 8 8 8 8 7 7 7 6 6 6 6 5 5 5
10 10 10 9 9 9 9 9 8 8 7 7 7 7 7 7 7 8 7 8 8 8 8 8 8 8 8 8 8 7 7 7 8 7 6 6 5 5 5 4 5 5 5
11 11 10 9 9 9 9 9 8 7 7 7 7 7 7 6 7 7 7 8 8 8 8 8 8 8 8 7 7 6 7 7 7 6 6 5 5 4 4 4 4 4 4
11 11 10 10 9 10 9 8 8 7 6 7 7 7 7 7 7 7 7 7 7 7 7 7 7 7 7 7 6 5 5 5 5 5 4 4 4 3 4 3 3 3 2
12 11 11 11 10 10 10 9 9 8 7 7 7 7 7 7 7 7 6 6 6 6 6 6 6 6 6 5 4 4 4 4 4 4 4 3 3 2 2 2 2 2 1
13 12 11 11 11 11 10 9 9 8 8 7 7 7 7 7 7 7 6 6 6 6 6 5 5 5 5 4 3 3 3 3 3 3 3 3 2 2 1 1 0 0 0
13 12 11 11 11 11 10 10 10 9 8 8 7 7 6 7 7 6 5 5 5 4 4 4 4 3 3 2 2 1 1 2 2 2 2 1 1 1 1 1 1 2 2
14 13 12 11 11 11 10 9 9 8 8 8 7 7 7 6 6 5 5 4 4 3 3 2 2 2 2 1 1 1 1 2 1 1 1 1 1 2 2 3 3 3 4
13 12 11 11 11 11 10 9 9 8 7 7 7 6 6 6 6 5 5 4 3 2 2 2 1 1 1 0 1 2 2 1 2 2 2 3 3 3 4 4 4 4 5
13 11 10 10 10 10 9 8 8 7 6 6 6 6 5 5 4 4 4 4 3 1 1 0 0 1 1 1 2 2 3 2 3 3 4 4 5 5 6 5 6 6 7
13 12 11 10 9 9 8 7 7 6 5 5 4 4 4 3 3 3 3 3 2 2 1 1 1 2 2 3 3 4 4 4 5 5 6 6 6 7 7 7 8 8 8
13 12 11 9 9 8 7 6 6 5 4 4 3 3 3 3 3 2 2 2 2 2 2 2 2 3 4 5 5 5 6 7 7 7 8 8 8 8 8 9 9 9 9
13 12 11 9 8 7 7 6 5 4 4 3 3 3 3 2 2 2 2 3 3 3 3 3 4 5 5 6 7 8 8 8 8 9 9 9 10 10 10 10 10 11 11
13 12 11 9 8 7 7 6 6 5 4 3 2 2 3 3 3 3 3 3 4 5 5 5 6 7 8 8 8 9 9 9 9 9 10 10 11 11 12 12 13 12 13
12 12 11 10 8 7 6 7 6 5 4 3 2 3 3 3 4 4 5 5 6 6 7 7 8 8 9 9 9 10 10 10 10 10 11 11 12 13 13 14 13 13 14
11 11 10 9 8 7 7 6 6 5 4 3 3 4 4 5 5 6 6 6 7 7 7 7 7 8 9 9 9 9 9 9 11 11 12 12 12 13 14 15 15 14 14
11 11 10 10 8 8 7 7 6 6 4 4 4 4 5 5 6 6 7 7 7 7 8 8 7 8 8 8 8 9 10 10 10 11 12 12 12 13 13 14 14 14 14
10 10 10 10 9 8 7 7 7 6 5 4 4 4 5 5 6 7 7 8 9 8 8 8 8 8 8 8 8 9 9 10 11 11 12 13 13 13 13 14 15 15 15
Wind_Direction
69 70 73 75 70 65 59 55 55 57 62 69 79 84 90 98 102 104 103 104 102 103 106 107 107 106 105 103 105 108 112 118 118 116 116 116 119 121 119 116 111 108 106
68 72 73 74 72 68 64 58 58 59 64 71 81 85 89 96 102 105 103 106 107 109 106 105 107 108 107 107 109 109 112 116 115 114 112 114 118 119 118 115 108 106 105
68 71 71 70 71 69 69 67 58 59 63 67 76 83 87 92 97 104 104 107 110 110 106 106 108 108 107 107 108 111 111 113 111 110 111 112 114 116 115 114 110 107 103
70 70 70 69 68 65 66 62 59 62 65 69 76 79 80 90 96 102 103 107 110 109 105 104 106 108 106 106 108 109 109 110 107 109 110 111 112 114 113 112 110 104 102
69 69 69 68 66 63 60 57 59 62 65 70 71 75 79 86 93 97 103 107 109 109 105 103 105 106 105 105 107 107 107 108 109 108 108 108 108 109 110 109 105 104 102
66 67 66 64 62 61 60 60 62 63 65 69 71 73 81 85 88 96 102 105 106 106 108 103 105 107 105 106 107 107 108 107 105 105 105 105 104 106 106 106 107 105 103
68 67 64 63 60 59 62 63 65 66 68 69 70 75 80 85 91 97 100 100 101 104 107 105 105 106 106 107 109 110 108 105 103 105 103 103 105 106 106 108 107 103 101
66 64 64 62 58 58 59 63 65 66 70 70 70 74 78 84 90 95 97 96 97 98 103 106 107 106 106 108 110 109 106 104 104 104 102 104 104 106 107 106 102 96 96
64 62 62 60 59 59 60 62 61 65 71 71 69 73 78 83 88 93 94 94 95 98 101 106 107 108 107 110 110 107 106 107 107 107 104 103 104 106 103 103 101 97 97
62 60 60 59 61 61 61 62 62 65 70 71 72 76 80 82 88 90 93 95 96 97 99 101 102 106 109 110 108 107 107 109 109 109 107 103 103 106 104 106 104 103 102
58 59 58 60 62 63 64 65 67 65 71 75 76 79 81 83 87 93 96 95 94 98 101 102 103 107 110 109 104 107 107 108 110 106 104 100 102 103 106 110 108 106 107
58 61 61 63 65 65 65 64 67 66 72 79 79 81 85 87 88 92 95 93 92 97 103 105 105 108 110 108 104 104 107 107 105 100 101 105 105 103 108 109 106 109 112
64 66 65 64 64 64 63 62 63 67 71 80 78 82 85 85 89 89 92 91 90 93 100 104 110 112 112 109 106 106 108 110 106 96 100 107 114 111 113 112 104 106 111
66 68 65 64 65 65 65 64 63 68 78 77 81 87 84 83 86 88 88 89 89 87 93 99 108 115 110 105 107 112 113 110 109 100 95 101 111 126 138 125 111 349 283
65 69 70 68 68 66 65 62 65 72 77 74 77 85 84 84 83 84 82 81 88 87 88 92 94 99 104 101 109 111 110 127 124 104 90 96 126 208 238 250 260 266 279
62 65 68 68 67 65 66 66 69 70 73 75 78 79 83 87 84 80 77 72 79 81 93 97 96 87 80 109 139 155 164 162 158 169 226 264 259 256 263 266 263 268 273
57 58 60 64 63 62 64 66 66 70 73 73 74 77 78 82 79 78 74 72 77 80 85 88 93 82 48 275 234 209 191 206 223 255 266 267 265 267 272 271 264 266 272
50 52 54 58 61 62 62 63 63 63 63 66 69 70 68 71 70 77 74 67 63 67 101 98 208 264 310 289 266 253 247 257 265 267 268 268 269 269 272 274 268 267 272
45 47 47 52 56 60 59 60 61 57 56 56 59 58 56 54 59 64 58 46 43 38 28 352 285 282 285 280 278 269 260 268 270 268 269 269 272 271 268 271 274 270 272
41 41 41 46 51 52 52 53 53 45 47 47 46 38 38 34 44 52 42 27 21 6 345 332 296 284 281 274 277 276 270 272 272 272 272 275 277 278 276 276 276 274 274
34 36 38 44 43 40 39 36 32 24 23 24 25 21 9 4 3 7 352 350 341 327 319 307 293 284 285 281 278 277 275 272 272 273 274 274 273 273 275 275 273 272 273
28 31 35 37 35 32 28 23 21 19 11 3 348 341 328 332 333 330 324 321 317 310 302 297 292 287 284 281 280 279 278 275 274 275 277 275 274 273 272 275 276 274 275
24 25 28 28 27 26 24 22 16 9 4 349 327 315 309 305 303 305 306 304 305 303 304 297 289 285 283 278 275 276 275 275 278 277 277 275 274 274 273 274 276 278 276
20 22 22 19 18 19 18 13 10 10 4 350 335 318 310 298 292 293 294 298 301 303 307 307 299 291 285 283 278 276 275 277 278 279 279 276 274 273 275 275 278 278 279
14 15 16 15 13 13 11 11 7 0 349 337 327 317 310 299 293 291 293 297 299 300 303 304 304 300 294 292 290 288 281 277 277 278 279 278 276 275 276 277 278 279 281
6 7 10 11 10 8 8 10 8 359 346 337 329 320 312 305 299 292 291 293 295 297 297 297 300 302 297 298 297 296 289 282 281 280 279 277 275 276 279 279 278 278 279
Height
5891 5891 5890 5890 5889 5889 5889 5888 5887 5886 5885 5884 5884 5884 5884 5883 5883 5883 5883 5883 5882 5882 5881 5882 5882 5882 5881 5881 5881 5881 5882 5883 5885 5886 5887 5887 5888 5889 5889 5890 5891 5891 5891
5893 5892 5892 5891 5891 5890 5890 5889 5888 5888 5887 5886 5886 5886 5885 5885 5885 5885 5884 5884 5884 5884 5884 5884 5884 5884 5884 5884 5884 5884 5885 5886 5887 5888 5888 5889 5889 5890 5891 5891 5892 5892 5892
5894 5894 5894 5893 5893 5892 5891 5891 5890 5890 5889 5888 5888 5888 5887 5887 5886 5886 5886 5886 5886 5886 5886 5886 5886 5886 5886 5886 5886 5886 5887 5887 5888 5889 5890 5891 5891 5892 5892 5892 5893 5893 5893
5896 5896 5895 5895 5894 5894 5893 5892 5892 5892 5891 5890 5890 5889 5889 5888 5888 5888 5888 5887 5887 5887 5887 5887 5888 5888 5888 5888 5888 5888 5889 5889 5890 5891 5892 5892 5892 5893 5893 5894 5894 5894 5894
5897 5897 5897 5896 5896 5896 5895 5895 5894 5894 5893 5893 5892 5891 5891 5890 5890 5890 5890 5889 5889 5889 5889 5889 5889 5889 5890 5890 5890 5890 5890 5891 5892 5892 5893 5893 5894 5894 5894 5895 5895 5895 5895
5899 5899 5899 5898 5898 5898 5897 5896 5896 5895 5895 5894 5894 5893 5893 5892 5892 5892 5892 5892 5891 5891 5891 5891 5891 5891 5891 5891 5891 5892 5892 5893 5893 5893 5894 5894 5895 5895 5896 5896 5896 5896 5896
5901 5901 5900 5900 5899 5899 5898 5898 5898 5897 5896 5896 5896 5895 5895 5894 5894 5893 5893 5893 5893 5893 5893 5893 5893 5893 5893 5893 5893 5894 5894 5894 5895 5895 5895 5896 5896 5896 5897 5897 5897 5897 5897
5903 5902 5902 5901 5901 5900 5900 5899 5899 5898 5898 5898 5897 5897 5896 5896 5896 5895 5895 5895 5895 5895 5895 5895 5895 5895 5895 5895 5895 5895 5895 5896 5896 5897 5897 5897 5898 5898 5898 5898 5898 5898 5898
5904 5904 5903 5902 5902 5902 5901 5900 5900 5899 5899 5899 5899 5898 5898 5898 5897 5897 5897 5896 5896 5896 5896 5896 5896 5897 5897 5897 5897 5897 5897 5897 5897 5898 5898 5898 5898 5899 5899 5899 5899 5899 5899
5905 5905 5904 5903 5903 5903 5902 5902 5901 5901 5900 5900 5900 5900 5899 5899 5899 5898 5898 5898 5898 5898 5898 5898 5898 5898 5898 5898 5898 5898 5898 5898 5898 5898 5899 5899 5899 5899 5900 5899 5899 5899 5899
5906 5905 5905 5905 5904 5904 5903 5903 5902 5902 5901 5901 5901 5901 5901 5900 5900 5900 5900 5899 5899 5899 5899 5899 5899 5899 5900 5900 5900 5900 5899 5899 5899 5899 5899 5900 5900 5900 5900 5900 5900 5900 5900
5907 5906 5906 5905 5905 5905 5904 5904 5903 5903 5903 5902 5902 5902 5902 5901 5901 5901 5901 5901 5900 5900 5900 5900 5901 5901 5901 5901 5901 5901 5901 5901 5901 5900 5900 5900 5901 5901 5901 5901 5900 5900 5900
5909 5908 5907 5906 5906 5906 5905 5904 5904 5904 5904 5903 5903 5903 5903 5902 5903 5903 5902 5902 5902 5902 5902 5902 5902 5902 5902 5902 5902 5902 5902 5902 5902 5901 5901 5901 5901 5901 5901 5901 5900 5900 5900
5910 5910 5909 5908 5907 5907 5906 5906 5905 5905 5905 5904 5904 5904 5904 5904 5904 5904 5904 5904 5903 5903 5903 5903 5903 5903 5903 5903 5903 5903 5903 5902 5902 5902 5902 5902 5901 5901 5901 5901 5901 5900 5900
5912 5911 5910 5910 5909 5908 5908 5907 5906 5906 5906 5906 5905 5905 5905 5905 5905 5905 5904 5904 5904 5904 5904 5904 5904 5904 5904 5904 5903 5903 5903 5903 5903 5903 5902 5902 5902 5901 5901 5901 5900 5900 5900
5914 5913 5912 5911 5910 5910 5909 5909 5908 5908 5907 5907 5907 5907 5906 5906 5906 5905 5905 5905 5905 5905 5905 5905 5904 5904 5904 5904 5904 5904 5904 5903 5903 5903 5903 5902 5902 5901 5901 5900 5900 5900 5899
5915 5914 5914 5912 5911 5911 5910 5910 5909 5909 5909 5908 5908 5908 5907 5907 5907 5906 5906 5906 5906 5905 5905 5905 5905 5905 5904 5904 5904 5904 5903 5903 5903 5903 5902 5902 5901 5901 5900 5900 5899 5899 5899
5917 5916 5915 5914 5913 5912 5911 5911 5910 5910 5910 5909 5909 5908 5908 5908 5907 5907 5907 5906 5906 5906 5906 5905 5905 5905 5905 5904 5904 5904 5903 5903 5903 5902 5902 5901 5901 5900 5900 5899 5899 5898 5897
5918 5917 5915 5915 5914 5913 5912 5911 5911 5910 5910 5910 5909 5909 5909 5908 5908 5907 5907 5907 5906 5906 5905 5905 5905 5904 5904 5904 5904 5903 5903 5902 5902 5901 5900 5900 5900 5899 5898 5898 5897 5896 5895
5920 5918 5916 5915 5914 5913 5913 5912 5911 5911 5910 5910 5910 5909 5909 5908 5908 5907 5907 5907 5906 5906 5905 5905 5904 5904 5904 5903 5903 5902 5902 5901 5901 5900 5899 5899 5898 5897 5897 5896 5895 5894 5894
5921 5920 5918 5916 5915 5914 5913 5912 5912 5911 5910 5910 5910 5909 5909 5908 5908 5907 5907 5906 5906 5905 5905 5904 5904 5903 5903 5902 5902 5901 5900 5899 5899 5898 5898 5897 5896 5895 5895 5894 5893 5892 5891
5922 5921 5919 5917 5916 5914 5913 5912 5911 5911 5910 5910 5909 5909 5908 5908 5908 5907 5906 5906 5906 5905 5904 5903 5902 5902 5901 5900 5900 5899 5898 5898 5897 5896 5895 5895 5894 5893 5892 5891 5890 5889 5888
5923 5921 5920 5918 5916 5915 5913 5912 5911 5910 5910 5909 5909 5908 5908 5907 5907 5906 5906 5905 5905 5904 5903 5902 5901 5900 5899 5898 5898 5897 5896 5896 5894 5894 5893 5892 5891 5890 5889 5888 5886 5886 5884
5924 5922 5920 5918 5917 5915 5913 5912 5911 5910 5909 5909 5908 5908 5907 5906 5906 5905 5904 5904 5903 5902 5901 5900 5898 5897 5896 5895 5895 5894 5894 5893 5892 5891 5890 5889 5888 5887 5886 5884 5883 5882 5881
5924 5922 5920 5918 5916 5915 5913 5912 5911 5910 5909 5908 5907 5907 5906 5905 5904 5903 5903 5902 5901 5900 5899 5898 5897 5896 5894 5893 5892 5891 5890 5890 5889 5888 5887 5886 5885 5884 5882 5881 5880 5879 5878
5924 5922 5920 5918 5916 5915 5913 5912 5910 5909 5908 5907 5906 5905 5905 5904 5902 5902 5901 5900 5899 5898 5897 5896 5895 5894 5892 5891 5890 5889 5888 5887 5886 5885 5884 5882 5881 5881 5879 5878 5877 5875 5874